Time,TemperatureF,DewpointF,PressureIn,WindDirection,WindDirectionDegrees,WindSpeedMPH,WindSpeedGustMPH,Humidity,HourlyPrecipIn,Conditions,Clouds,dailyrainin,SolarRadiationWatts/m^2,SoftwareType,DateUTC
2013-09-18 00:04:00,49.1,40.0,29.87,NNE,23,3.0,-999.0,70,-99.99,,,0.03,0,weatherlink.com 1.10,2013-09-18 07:04:00,
2013-09-18 00:19:00,49.0,40.0,29.87,NNE,13,7.0,-999.0,71,-99.99,,,0.03,0,weatherlink.com 1.10,2013-09-18 07:19:00,
2013-09-18 00:34:00,48.4,40.0,29.87,NE,51,0.0,-999.0,74,-99.99,,,0.03,0,weatherlink.com 1.10,2013-09-18 07:34:00,
2013-09-18 00:49:00,48.0,40.0,29.87,NNE,32,4.0,-999.0,75,-99.99,,,0.03,0,weatherlink.com 1.10,2013-09-18 07:49:00,
2013-09-18 01:04:00,48.2,40.0,29.88,NNE,32,3.0,-999.0,74,-99.99,,,0.03,0,weatherlink.com 1.10,2013-09-18 08:04:00,
2013-09-18 01:19:00,47.9,40.0,29.88,NNE,32,0.0,-999.0,74,-99.99,,,0.03,0,weatherlink.com 1.10,2013-09-18 08:19:00,
2013-09-18 01:34:00,47.5,39.0,29.88,SW,215,4.0,-999.0,73,-99.99,,,0.03,0,weatherlink.com 1.10,2013-09-18 08:34:00,
2013-09-18 01:49:00,45.6,38.0,29.89,South,180,3.0,-999.0,75,-99.99,,,0.03,0,weatherlink.com 1.10,2013-09-18 08:49:00,
2013-09-18 02:04:00,45.8,38.0,29.89,WSW,250,8.0,-999.0,75,-99.99,,,0.03,0,weatherlink.com 1.10,2013-09-18 09:04:00,
2013-09-18 02:19:00,46.4,38.0,29.89,NW,325,0.0,-999.0,73,-99.99,,,0.03,0,weatherlink.com 1.10,2013-09-18 09:19:00,
2013-09-18 02:34:00,45.9,38.0,29.89,NW,325,0.0,-999.0,75,-99.99,,,0.03,0,weatherlink.com 1.10,2013-09-18 09:34:00,
2013-09-18 02:49:00,44.9,38.0,29.90,SSW,198,0.0,-999.0,77,-99.99,,,0.03,0,weatherlink.com 1.10,2013-09-18 09:49:00,
2013-09-18 03:04:00,44.6,38.0,29.89,SSW,200,2.0,-999.0,78,-99.99,,,0.03,0,weatherlink.com 1.10,2013-09-18 10:04:00,
2013-09-18 03:19:00,44.6,38.0,29.90,SSW,200,3.0,-999.0,78,-99.99,,,0.03,0,weatherlink.com 1.10,2013-09-18 10:19:00,
2013-09-18 03:34:00,45.1,38.0,29.91,SSW,200,3.0,-999.0,77,-99.99,,,0.03,0,weatherlink.com 1.10,2013-09-18 10:34:00,
2013-09-18 03:49:00,46.1,39.0,29.91,SSW,200,0.0,-999.0,76,-99.99,,,0.03,0,weatherlink.com 1.10,2013-09-18 10:49:00,
2013-09-18 04:04:00,44.7,38.0,29.91,SSW,200,0.0,-999.0,77,-99.99,,,0.03,0,weatherlink.com 1.10,2013-09-18 11:04:00,
2013-09-18 04:19:00,43.1,37.0,29.91,SW,215,3.0,-999.0,79,-99.99,,,0.03,0,weatherlink.com 1.10,2013-09-18 11:19:00,
2013-09-18 04:34:00,43.8,38.0,29.92,SW,215,0.0,-999.0,79,-99.99,,,0.03,0,weatherlink.com 1.10,2013-09-18 11:34:00,
2013-09-18 04:49:00,44.7,38.0,29.92,SW,215,0.0,-999.0,77,-99.99,,,0.03,0,weatherlink.com 1.10,2013-09-18 11:49:00,
2013-09-18 05:04:00,44.2,37.0,29.92,SSW,213,4.0,-999.0,76,-99.99,,,0.03,0,weatherlink.com 1.10,2013-09-18 12:04:00,
2013-09-18 05:19:00,44.7,38.0,29.93,SSW,213,2.0,-999.0,77,-99.99,,,0.03,0,weatherlink.com 1.10,2013-09-18 12:19:00,
2013-09-18 05:34:00,43.5,37.0,29.93,SW,214,2.0,-999.0,79,-99.99,,,0.03,0,weatherlink.com 1.10,2013-09-18 12:34:00,
2013-09-18 05:49:00,43.6,37.0,29.93,SW,214,4.0,-999.0,78,-99.99,,,0.03,0,weatherlink.com 1.10,2013-09-18 12:49:00,
2013-09-18 06:04:00,42.8,37.0,29.94,SW,215,5.0,-999.0,79,-99.99,,,0.03,0,weatherlink.com 1.10,2013-09-18 13:04:00,
2013-09-18 06:19:00,43.1,37.0,29.94,SW,214,4.0,-999.0,79,-99.99,,,0.03,0,weatherlink.com 1.10,2013-09-18 13:19:00,
2013-09-18 06:38:00,43.4,37.0,29.95,SW,214,4.0,-999.0,79,-99.99,,,0.03,0,weatherlink.com 1.10,2013-09-18 13:38:00,
2013-09-18 06:49:00,43.9,37.0,29.95,SW,214,0.0,-999.0,78,-99.99,,,0.03,5,weatherlink.com 1.10,2013-09-18 13:49:00,
2013-09-18 07:04:00,43.8,37.0,29.95,SW,214,3.0,-999.0,78,-99.99,,,0.00,26,weatherlink.com 1.10,2013-09-18 14:04:00,
2013-09-18 07:19:00,43.9,37.0,29.96,SW,215,4.0,-999.0,78,-99.99,,,0.00,54,weatherlink.com 1.10,2013-09-18 14:19:00,
2013-09-18 07:34:00,44.0,37.0,29.96,SW,215,3.0,-999.0,77,-99.99,,,0.00,86,weatherlink.com 1.10,2013-09-18 14:34:00,
2013-09-18 07:49:00,45.3,38.0,29.96,SW,214,2.0,-999.0,76,-99.99,,,0.00,90,weatherlink.com 1.10,2013-09-18 14:49:00,
2013-09-18 08:04:00,45.8,38.0,29.96,SW,214,0.0,-999.0,74,-99.99,,,0.00,104,weatherlink.com 1.10,2013-09-18 15:04:00,
2013-09-18 08:19:00,46.9,40.0,29.96,SW,214,0.0,-999.0,76,-99.99,,,0.00,98,weatherlink.com 1.10,2013-09-18 15:19:00,
2013-09-18 08:34:00,46.6,38.0,29.96,West,274,0.0,-999.0,73,-99.99,,,0.00,148,weatherlink.com 1.10,2013-09-18 15:34:00,
2013-09-18 08:49:00,48.1,39.0,29.96,West,274,0.0,-999.0,71,-99.99,,,0.00,239,weatherlink.com 1.10,2013-09-18 15:49:00,
2013-09-18 09:04:00,51.9,40.0,29.96,SE,142,8.0,-999.0,65,-99.99,,,0.00,566,weatherlink.com 1.10,2013-09-18 16:04:00,
2013-09-18 09:19:00,52.5,40.0,29.96,SE,134,1.0,-999.0,62,-99.99,,,0.00,439,weatherlink.com 1.10,2013-09-18 16:19:00,
2013-09-18 09:34:00,52.6,39.0,29.97,SE,137,0.0,-999.0,61,-99.99,,,0.00,471,weatherlink.com 1.10,2013-09-18 16:34:00,
2013-09-18 09:49:00,53.5,39.0,29.97,ESE,111,2.0,-999.0,59,-99.99,,,0.00,587,weatherlink.com 1.10,2013-09-18 16:49:00,
2013-09-18 10:04:00,54.4,39.0,29.97,ESE,109,0.0,-999.0,57,-99.99,,,0.00,752,weatherlink.com 1.10,2013-09-18 17:04:00,
2013-09-18 10:19:00,55.1,39.0,29.97,NE,56,4.0,-999.0,55,-99.99,,,0.00,742,weatherlink.com 1.10,2013-09-18 17:19:00,
2013-09-18 10:34:00,52.7,38.0,29.97,NW,325,6.0,-999.0,58,-99.99,,,0.00,179,weatherlink.com 1.10,2013-09-18 17:34:00,
2013-09-18 10:49:00,52.7,38.0,29.97,NW,323,0.0,-999.0,58,-99.99,,,0.00,186,weatherlink.com 1.10,2013-09-18 17:49:00,
2013-09-18 11:04:00,54.0,38.0,29.96,NW,323,2.0,-999.0,55,-99.99,,,0.00,777,weatherlink.com 1.10,2013-09-18 18:04:00,
2013-09-18 11:19:00,54.5,38.0,29.96,SW,225,0.0,-999.0,54,-99.99,,,0.00,209,weatherlink.com 1.10,2013-09-18 18:19:00,
2013-09-18 11:34:00,54.3,38.0,29.97,NNW,338,7.0,-999.0,54,-99.99,,,0.00,221,weatherlink.com 1.10,2013-09-18 18:34:00,
2013-09-18 11:49:00,54.9,38.0,29.97,NNW,342,5.0,-999.0,54,-99.99,,,0.00,174,weatherlink.com 1.10,2013-09-18 18:49:00,
2013-09-18 12:04:00,55.1,38.0,29.97,NNE,29,6.0,-999.0,53,-99.99,,,0.00,172,weatherlink.com 1.10,2013-09-18 19:04:00,
2013-09-18 12:19:00,57.3,39.0,29.96,ESE,110,6.0,-999.0,50,-99.99,,,0.00,791,weatherlink.com 1.10,2013-09-18 19:19:00,
2013-09-18 12:34:00,58.2,37.0,29.97,NW,319,7.0,-999.0,45,-99.99,,,0.00,856,weatherlink.com 1.10,2013-09-18 19:34:00,
2013-09-18 12:49:00,59.1,38.0,29.96,North,5,6.0,-999.0,45,-99.99,,,0.00,823,weatherlink.com 1.10,2013-09-18 19:49:00,
2013-09-18 13:04:00,59.4,38.0,29.95,NNE,17,0.0,-999.0,45,-99.99,,,0.00,888,weatherlink.com 1.10,2013-09-18 20:04:00,
2013-09-18 13:19:00,58.8,37.0,29.95,NNE,30,2.0,-999.0,44,-99.99,,,0.00,816,weatherlink.com 1.10,2013-09-18 20:19:00,
2013-09-18 13:34:00,58.8,37.0,29.94,NNW,329,3.0,-999.0,44,-99.99,,,0.00,113,weatherlink.com 1.10,2013-09-18 20:34:00,
2013-09-18 13:49:00,59.3,37.0,29.94,NE,46,4.0,-999.0,44,-99.99,,,0.00,773,weatherlink.com 1.10,2013-09-18 20:49:00,
2013-09-18 14:04:00,60.9,37.0,29.93,ESE,109,5.0,-999.0,42,-99.99,,,0.00,728,weatherlink.com 1.10,2013-09-18 21:04:00,
2013-09-18 14:19:00,62.0,38.0,29.93,SSW,199,5.0,-999.0,41,-99.99,,,0.00,701,weatherlink.com 1.10,2013-09-18 21:19:00,
2013-09-18 14:34:00,62.4,37.0,29.93,ENE,78,1.0,-999.0,39,-99.99,,,0.00,675,weatherlink.com 1.10,2013-09-18 21:34:00,
2013-09-18 14:49:00,63.1,38.0,29.92,East,81,5.0,-999.0,39,-99.99,,,0.00,663,weatherlink.com 1.10,2013-09-18 21:49:00,
2013-09-18 15:04:00,63.8,37.0,29.92,North,360,0.0,-999.0,37,-99.99,,,0.00,621,weatherlink.com 1.10,2013-09-18 22:04:00,
2013-09-18 15:19:00,62.3,37.0,29.92,North,360,0.0,-999.0,39,-99.99,,,0.00,617,weatherlink.com 1.10,2013-09-18 22:19:00,
2013-09-18 15:34:00,63.2,36.0,29.92,NE,40,2.0,-999.0,37,-99.99,,,0.00,568,weatherlink.com 1.10,2013-09-18 22:34:00,
2013-09-18 15:49:00,63.9,36.0,29.91,ENE,75,0.0,-999.0,36,-99.99,,,0.00,522,weatherlink.com 1.10,2013-09-18 22:49:00,
2013-09-18 16:04:00,63.9,36.0,29.91,NE,51,4.0,-999.0,36,-99.99,,,0.00,487,weatherlink.com 1.10,2013-09-18 23:04:00,
2013-09-18 16:19:00,64.0,36.0,29.91,NE,54,0.0,-999.0,36,-99.99,,,0.00,454,weatherlink.com 1.10,2013-09-18 23:19:00,
2013-09-18 16:34:00,64.9,36.0,29.91,NE,38,3.0,-999.0,35,-99.99,,,0.00,399,weatherlink.com 1.10,2013-09-18 23:34:00,
2013-09-18 16:49:00,64.9,37.0,29.91,East,82,4.0,-999.0,36,-99.99,,,0.00,353,weatherlink.com 1.10,2013-09-18 23:49:00,
2013-09-18 17:04:00,64.7,36.0,29.91,ESE,102,5.0,-999.0,35,-99.99,,,0.00,309,weatherlink.com 1.10,2013-09-19 00:04:00,
2013-09-18 17:19:00,64.5,36.0,29.90,East,83,1.0,-999.0,35,-99.99,,,0.00,257,weatherlink.com 1.10,2013-09-19 00:19:00,
2013-09-18 17:34:00,65.0,36.0,29.90,East,97,4.0,-999.0,34,-99.99,,,0.00,200,weatherlink.com 1.10,2013-09-19 00:34:00,
2013-09-18 18:04:00,63.3,35.0,29.90,East,91,4.0,-999.0,35,-99.99,,,0.00,93,weatherlink.com 1.10,2013-09-19 01:04:00,
2013-09-18 18:19:00,62.9,35.0,29.90,East,94,0.0,-999.0,36,-99.99,,,0.00,51,weatherlink.com 1.10,2013-09-19 01:19:00,
2013-09-18 18:34:00,62.2,35.0,29.90,East,94,0.0,-999.0,36,-99.99,,,0.00,19,weatherlink.com 1.10,2013-09-19 01:34:00,
2013-09-18 18:49:00,61.4,35.0,29.90,East,94,0.0,-999.0,37,-99.99,,,0.00,12,weatherlink.com 1.10,2013-09-19 01:49:00,
2013-09-18 19:04:00,60.8,35.0,29.91,East,94,0.0,-999.0,38,-99.99,,,0.00,5,weatherlink.com 1.10,2013-09-19 02:04:00,
2013-09-18 19:19:00,59.8,35.0,29.91,East,94,2.0,-999.0,39,-99.99,,,0.00,0,weatherlink.com 1.10,2013-09-19 02:19:00,
2013-09-18 19:34:00,58.1,34.0,29.91,NNE,13,4.0,-999.0,41,-99.99,,,0.00,0,weatherlink.com 1.10,2013-09-19 02:34:00,
2013-09-18 19:49:00,56.8,35.0,29.92,North,5,2.0,-999.0,44,-99.99,,,0.00,0,weatherlink.com 1.10,2013-09-19 02:49:00,
2013-09-18 20:04:00,55.8,35.0,29.92,North,5,3.0,-999.0,46,-99.99,,,0.00,0,weatherlink.com 1.10,2013-09-19 03:04:00,
2013-09-18 20:19:00,54.9,35.0,29.93,North,5,4.0,-999.0,48,-99.99,,,0.00,0,weatherlink.com 1.10,2013-09-19 03:19:00,
2013-09-18 20:34:00,54.5,36.0,29.93,North,5,0.0,-999.0,50,-99.99,,,0.00,0,weatherlink.com 1.10,2013-09-19 03:34:00,
2013-09-18 20:50:00,54.4,36.0,29.93,North,5,1.0,-999.0,51,-99.99,,,0.00,0,weatherlink.com 1.10,2013-09-19 03:50:00,
2013-09-18 21:04:00,53.0,35.0,29.93,SW,232,4.0,-999.0,51,-99.99,,,0.00,0,weatherlink.com 1.10,2013-09-19 04:04:00,
2013-09-18 21:19:00,51.3,35.0,29.94,SW,225,5.0,-999.0,55,-99.99,,,0.00,0,weatherlink.com 1.10,2013-09-19 04:19:00,
2013-09-18 21:34:00,51.8,36.0,29.94,SW,236,5.0,-999.0,56,-99.99,,,0.00,0,weatherlink.com 1.10,2013-09-19 04:34:00,
2013-09-18 21:49:00,52.3,36.0,29.94,WSW,237,3.0,-999.0,55,-99.99,,,0.00,0,weatherlink.com 1.10,2013-09-19 04:49:00,
2013-09-18 22:04:00,52.1,37.0,29.94,WSW,238,4.0,-999.0,56,-99.99,,,0.00,0,weatherlink.com 1.10,2013-09-19 05:04:00,
2013-09-18 22:19:00,51.9,37.0,29.94,WSW,238,1.0,-999.0,57,-99.99,,,0.00,0,weatherlink.com 1.10,2013-09-19 05:19:00,
2013-09-18 22:34:00,52.2,37.0,29.95,WSW,238,4.0,-999.0,57,-99.99,,,0.00,0,weatherlink.com 1.10,2013-09-19 05:34:00,
2013-09-18 22:49:00,52.1,37.0,29.94,WSW,238,4.0,-999.0,57,-99.99,,,0.00,0,weatherlink.com 1.10,2013-09-19 05:49:00,
2013-09-18 23:04:00,50.2,36.0,29.94,WSW,238,6.0,-999.0,59,-99.99,,,0.00,0,weatherlink.com 1.10,2013-09-19 06:04:00,
2013-09-18 23:19:00,48.9,36.0,29.94,WSW,238,4.0,-999.0,62,-99.99,,,0.00,0,weatherlink.com 1.10,2013-09-19 06:19:00,
2013-09-18 23:34:00,49.5,36.0,29.94,WSW,238,4.0,-999.0,61,-99.99,,,0.00,0,weatherlink.com 1.10,2013-09-19 06:34:00,
2013-09-18 23:49:00,49.7,36.0,29.94,SW,232,5.0,-999.0,60,-99.99,,,0.00,0,weatherlink.com 1.10,2013-09-19 06:49:00,